owner,sensor,date,latitude,longitude,vertical_datum,mass_concentration_of_oxygen_in_sea_water,qcFlag 
DISL,ioos:station:DISL:PPTA:1,2017-04-01T00:00:00Z,30.2791,-87.5561,1.307,7.58,1111122 
DISL,ioos:station:DISL:PPTA:1,2017-04-01T00:30:00Z,30.2791,-87.5561,1.291,7.66,1111122 
DISL,ioos:station:DISL:PPTA:1,2017-04-01T01:00:00Z,30.2791,-87.5561,1.284,7.51,1111122 
DISL,ioos:station:DISL:PPTA:1,2017-04-01T01:30:00Z,30.2791,-87.5561,1.261,7.54,1111122 
DISL,ioos:station:DISL:PPTA:1,2017-04-01T02:00:00Z,30.2791,-87.5561,1.245,6.97,1111122 
DISL,ioos:station:DISL:PPTA:1,2017-04-01T02:30:00Z,30.2791,-87.5561,1.239,6.41,1111122 
DISL,ioos:station:DISL:PPTA:1,2017-04-01T03:00:00Z,30.2791,-87.5561,1.225,6.29,1111122 
DISL,ioos:station:DISL:PPTA:1,2017-04-01T03:30:00Z,30.2791,-87.5561,1.221,6.31,1111122 
DISL,ioos:station:DISL:PPTA:1,2017-04-01T04:00:00Z,30.2791,-87.5561,1.202,6.89,1111122 
DISL,ioos:station:DISL:PPTA:1,2017-04-01T04:30:00Z,30.2791,-87.5561,1.198,5.96,1111122 
DISL,ioos:station:DISL:PPTA:1,2017-04-01T05:00:00Z,30.2791,-87.5561,1.19,6.7,1111122 
DISL,ioos:station:DISL:PPTA:1,2017-04-01T05:30:00Z,30.2791,-87.5561,1.187,6.74,1111122 
DISL,ioos:station:DISL:PPTA:1,2017-04-01T06:00:00Z,30.2791,-87.5561,1.195,6.75,1111122 
DISL,ioos:station:DISL:PPTA:1,2017-04-01T06:30:00Z,30.2791,-87.5561,1.199,6.8,1111122 
DISL,ioos:station:DISL:PPTA:1,2017-04-01T07:00:00Z,30.2791,-87.5561,1.21,6.95,1111122 
DISL,ioos:station:DISL:PPTA:1,2017-04-01T07:30:00Z,30.2791,-87.5561,1.216,6.41,1111122 
DISL,ioos:station:DISL:PPTA:1,2017-04-01T08:00:00Z,30.2791,-87.5561,1.206,6.0,1111122 
DISL,ioos:station:DISL:PPTA:1,2017-04-01T08:30:00Z,30.2791,-87.5561,1.219,6.63,1111122 
DISL,ioos:station:DISL:PPTA:1,2017-04-01T09:00:00Z,30.2791,-87.5561,1.22,6.09,1111122 
DISL,ioos:station:DISL:PPTA:1,2017-04-01T09:30:00Z,30.2791,-87.5561,1.221,5.86,1111122 
DISL,ioos:station:DISL:PPTA:1,2017-04-01T10:00:00Z,30.2791,-87.5561,1.223,6.11,1111122 
DISL,ioos:station:DISL:PPTA:1,2017-04-01T10:30:00Z,30.2791,-87.5561,1.216,5.8,1111122 
DISL,ioos:station:DISL:PPTA:1,2017-04-01T11:00:00Z,30.2791,-87.5561,1.239,5.78,1111122 
DISL,ioos:station:DISL:PPTA:1,2017-04-01T11:30:00Z,30.2791,-87.5561,1.239,5.95,1111122 
DISL,ioos:station:DISL:PPTA:1,2017-04-01T12:00:00Z,30.2791,-87.5561,1.257,5.84,1111122 
DISL,ioos:station:DISL:PPTA:1,2017-04-01T12:30:00Z,30.2791,-87.5561,1.289,6.01,1111122 
DISL,ioos:station:DISL:PPTA:1,2017-04-01T13:00:00Z,30.2791,-87.5561,1.291,5.83,1111122 
DISL,ioos:station:DISL:PPTA:1,2017-04-01T13:30:00Z,30.2791,-87.5561,1.317,5.93,1111122 
DISL,ioos:station:DISL:PPTA:1,2017-04-01T14:00:00Z,30.2791,-87.5561,1.329,5.95,1111122 
DISL,ioos:station:DISL:PPTA:1,2017-04-01T14:30:00Z,30.2791,-87.5561,1.345,6.0,1111122 
DISL,ioos:station:DISL:PPTA:1,2017-04-01T15:00:00Z,30.2791,-87.5561,1.359,6.04,1111122 
DISL,ioos:station:DISL:PPTA:1,2017-04-01T15:30:00Z,30.2791,-87.5561,1.383,6.18,1111122 
DISL,ioos:station:DISL:PPTA:1,2017-04-01T16:00:00Z,30.2791,-87.5561,1.392,6.14,1111122 
DISL,ioos:station:DISL:PPTA:1,2017-04-01T16:30:00Z,30.2791,-87.5561,1.386,6.38,1111122 
DISL,ioos:station:DISL:PPTA:1,2017-04-01T17:00:00Z,30.2791,-87.5561,1.41,6.3,1111122 
DISL,ioos:station:DISL:PPTA:1,2017-04-01T17:30:00Z,30.2791,-87.5561,1.42,6.36,1111122 
DISL,ioos:station:DISL:PPTA:1,2017-04-01T18:00:00Z,30.2791,-87.5561,1.413,6.47,1111122 
DISL,ioos:station:DISL:PPTA:1,2017-04-01T18:30:00Z,30.2791,-87.5561,1.413,6.34,1111122 
DISL,ioos:station:DISL:PPTA:1,2017-04-01T19:00:00Z,30.2791,-87.5561,1.398,6.44,1111122 
DISL,ioos:station:DISL:PPTA:1,2017-04-01T19:30:00Z,30.2791,-87.5561,1.406,6.61,1111122 
DISL,ioos:station:DISL:PPTA:1,2017-04-01T20:00:00Z,30.2791,-87.5561,1.398,6.52,1111122 
DISL,ioos:station:DISL:PPTA:1,2017-04-01T20:30:00Z,30.2791,-87.5561,1.391,6.97,1111122 
DISL,ioos:station:DISL:PPTA:1,2017-04-01T21:00:00Z,30.2791,-87.5561,1.367,6.99,1111122 
DISL,ioos:station:DISL:PPTA:1,2017-04-01T21:30:00Z,30.2791,-87.5561,1.365,6.78,1111122 
DISL,ioos:station:DISL:PPTA:1,2017-04-01T22:00:00Z,30.2791,-87.5561,1.35,7.18,1111122 
DISL,ioos:station:DISL:PPTA:1,2017-04-01T22:30:00Z,30.2791,-87.5561,1.322,6.7,1111122 
DISL,ioos:station:DISL:PPTA:1,2017-04-01T23:00:00Z,30.2791,-87.5561,1.304,7.13,1111122 
DISL,ioos:station:DISL:PPTA:1,2017-04-01T23:30:00Z,30.2791,-87.5561,1.295,7.04,1111122 
DISL,ioos:station:DISL:PPTA:1,2017-04-02T00:00:00Z,30.2791,-87.5561,1.268,7.03,1111122 
DISL,ioos:station:DISL:PPTA:1,2017-04-02T00:30:00Z,30.2791,-87.5561,1.247,7.46,1111122 
DISL,ioos:station:DISL:PPTA:1,2017-04-02T01:00:00Z,30.2791,-87.5561,1.244,7.35,1111122 
DISL,ioos:station:DISL:PPTA:1,2017-04-02T01:30:00Z,30.2791,-87.5561,1.22,7.29,1111122 
DISL,ioos:station:DISL:PPTA:1,2017-04-02T02:00:00Z,30.2791,-87.5561,1.215,7.17,1111122 
DISL,ioos:station:DISL:PPTA:1,2017-04-02T02:30:00Z,30.2791,-87.5561,1.196,7.23,1111122 
DISL,ioos:station:DISL:PPTA:1,2017-04-02T03:00:00Z,30.2791,-87.5561,1.172,7.17,1111122 
DISL,ioos:station:DISL:PPTA:1,2017-04-02T03:30:00Z,30.2791,-87.5561,1.165,7.06,1111122 
DISL,ioos:station:DISL:PPTA:1,2017-04-02T04:00:00Z,30.2791,-87.5561,1.151,7.14,1111122 
DISL,ioos:station:DISL:PPTA:1,2017-04-02T04:30:00Z,30.2791,-87.5561,1.139,7.18,1111122 
DISL,ioos:station:DISL:PPTA:1,2017-04-02T05:00:00Z,30.2791,-87.5561,1.137,7.08,1111122 
DISL,ioos:station:DISL:PPTA:1,2017-04-02T05:30:00Z,30.2791,-87.5561,1.12,7.01,1111122 
DISL,ioos:station:DISL:PPTA:1,2017-04-02T06:00:00Z,30.2791,-87.5561,1.121,6.91,1111122 
DISL,ioos:station:DISL:PPTA:1,2017-04-02T06:30:00Z,30.2791,-87.5561,1.1,6.64,1111122 
DISL,ioos:station:DISL:PPTA:1,2017-04-02T07:00:00Z,30.2791,-87.5561,1.102,6.02,1111122 
DISL,ioos:station:DISL:PPTA:1,2017-04-02T07:30:00Z,30.2791,-87.5561,1.115,6.69,1111122 
DISL,ioos:station:DISL:PPTA:1,2017-04-02T08:00:00Z,30.2791,-87.5561,1.115,6.19,1111122 
DISL,ioos:station:DISL:PPTA:1,2017-04-02T08:30:00Z,30.2791,-87.5561,1.147,6.97,1111122 
DISL,ioos:station:DISL:PPTA:1,2017-04-02T09:00:00Z,30.2791,-87.5561,1.133,6.09,1111122 
DISL,ioos:station:DISL:PPTA:1,2017-04-02T09:30:00Z,30.2791,-87.5561,1.14,5.95,1111122 
DISL,ioos:station:DISL:PPTA:1,2017-04-02T10:00:00Z,30.2791,-87.5561,1.163,6.24,1111122 
DISL,ioos:station:DISL:PPTA:1,2017-04-02T10:30:00Z,30.2791,-87.5561,1.139,6.56,1111122 
DISL,ioos:station:DISL:PPTA:1,2017-04-02T11:00:00Z,30.2791,-87.5561,1.152,5.44,1111122 
DISL,ioos:station:DISL:PPTA:1,2017-04-02T11:30:00Z,30.2791,-87.5561,1.169,5.71,1111122 
DISL,ioos:station:DISL:PPTA:1,2017-04-02T12:00:00Z,30.2791,-87.5561,1.196,5.98,1111122 
DISL,ioos:station:DISL:PPTA:1,2017-04-02T12:30:00Z,30.2791,-87.5561,1.221,5.76,1111122 
DISL,ioos:station:DISL:PPTA:1,2017-04-02T13:00:00Z,30.2791,-87.5561,1.234,6.02,1111122 
DISL,ioos:station:DISL:PPTA:1,2017-04-02T13:30:00Z,30.2791,-87.5561,1.256,6.19,1111122 
DISL,ioos:station:DISL:PPTA:1,2017-04-02T14:00:00Z,30.2791,-87.5561,1.253,6.38,1111122 
DISL,ioos:station:DISL:PPTA:1,2017-04-02T14:30:00Z,30.2791,-87.5561,1.266,6.41,1111122 
DISL,ioos:station:DISL:PPTA:1,2017-04-02T15:00:00Z,30.2791,-87.5561,1.292,6.54,1111122 
DISL,ioos:station:DISL:PPTA:1,2017-04-02T15:30:00Z,30.2791,-87.5561,1.313,6.49,1111122 
DISL,ioos:station:DISL:PPTA:1,2017-04-02T16:00:00Z,30.2791,-87.5561,1.329,6.64,1111122 
DISL,ioos:station:DISL:PPTA:1,2017-04-02T16:30:00Z,30.2791,-87.5561,1.345,6.71,1111122 
DISL,ioos:station:DISL:PPTA:1,2017-04-02T17:00:00Z,30.2791,-87.5561,1.36,6.69,1111122 
DISL,ioos:station:DISL:PPTA:1,2017-04-02T17:30:00Z,30.2791,-87.5561,1.378,6.92,1111122 
DISL,ioos:station:DISL:PPTA:1,2017-04-02T18:00:00Z,30.2791,-87.5561,1.376,6.93,1111122 
DISL,ioos:station:DISL:PPTA:1,2017-04-02T18:30:00Z,30.2791,-87.5561,1.398,6.92,1111122 
DISL,ioos:station:DISL:PPTA:1,2017-04-02T19:00:00Z,30.2791,-87.5561,1.401,6.98,1111122 
DISL,ioos:station:DISL:PPTA:1,2017-04-02T19:30:00Z,30.2791,-87.5561,1.421,7.02,1111122 
DISL,ioos:station:DISL:PPTA:1,2017-04-02T20:00:00Z,30.2791,-87.5561,1.408,6.88,1111122 
DISL,ioos:station:DISL:PPTA:1,2017-04-02T20:30:00Z,30.2791,-87.5561,1.418,6.95,1111122 
DISL,ioos:station:DISL:PPTA:1,2017-04-02T21:00:00Z,30.2791,-87.5561,1.408,7.01,1111122 
DISL,ioos:station:DISL:PPTA:1,2017-04-02T21:30:00Z,30.2791,-87.5561,1.402,6.85,1111122 
DISL,ioos:station:DISL:PPTA:1,2017-04-02T22:00:00Z,30.2791,-87.5561,1.411,7.12,1111122 
DISL,ioos:station:DISL:PPTA:1,2017-04-02T22:30:00Z,30.2791,-87.5561,1.376,7.13,1111122 
DISL,ioos:station:DISL:PPTA:1,2017-04-02T23:00:00Z,30.2791,-87.5561,1.395,6.86,1111122 
DISL,ioos:station:DISL:PPTA:1,2017-04-02T23:30:00Z,30.2791,-87.5561,1.377,7.26,1111122 
DISL,ioos:station:DISL:PPTA:1,2017-04-03T00:00:00Z,30.2791,-87.5561,1.332,7.0,1111122 
DISL,ioos:station:DISL:PPTA:1,2017-04-03T00:30:00Z,30.2791,-87.5561,1.337,7.05,1111122 
DISL,ioos:station:DISL:PPTA:1,2017-04-03T01:00:00Z,30.2791,-87.5561,1.33,6.64,1111122 
DISL,ioos:station:DISL:PPTA:1,2017-04-03T01:30:00Z,30.2791,-87.5561,1.323,7.0,1111122 
DISL,ioos:station:DISL:PPTA:1,2017-04-03T02:00:00Z,30.2791,-87.5561,1.292,6.45,1111122 
DISL,ioos:station:DISL:PPTA:1,2017-04-03T02:30:00Z,30.2791,-87.5561,1.296,6.59,1111122 
DISL,ioos:station:DISL:PPTA:1,2017-04-03T03:00:00Z,30.2791,-87.5561,1.282,6.99,1111122 
DISL,ioos:station:DISL:PPTA:1,2017-04-03T03:30:00Z,30.2791,-87.5561,1.254,6.76,1111122 
DISL,ioos:station:DISL:PPTA:1,2017-04-03T04:00:00Z,30.2791,-87.5561,1.26,6.97,1111122 
DISL,ioos:station:DISL:PPTA:1,2017-04-03T04:30:00Z,30.2791,-87.5561,1.234,6.79,1111122 
DISL,ioos:station:DISL:PPTA:1,2017-04-03T05:00:00Z,30.2791,-87.5561,1.232,6.81,1111122 
DISL,ioos:station:DISL:PPTA:1,2017-04-03T05:30:00Z,30.2791,-87.5561,1.247,6.5,1111122 
DISL,ioos:station:DISL:PPTA:1,2017-04-03T06:00:00Z,30.2791,-87.5561,1.226,6.5,1111122 
DISL,ioos:station:DISL:PPTA:1,2017-04-03T06:30:00Z,30.2791,-87.5561,1.236,6.89,1111122 
DISL,ioos:station:DISL:PPTA:1,2017-04-03T07:00:00Z,30.2791,-87.5561,1.25,6.6,1111122 
DISL,ioos:station:DISL:PPTA:1,2017-04-03T07:30:00Z,30.2791,-87.5561,1.228,6.52,1111122 
DISL,ioos:station:DISL:PPTA:1,2017-04-03T08:00:00Z,30.2791,-87.5561,1.213,6.25,1111122 
DISL,ioos:station:DISL:PPTA:1,2017-04-03T08:30:00Z,30.2791,-87.5561,1.225,6.01,1111122 
DISL,ioos:station:DISL:PPTA:1,2017-04-03T09:00:00Z,30.2791,-87.5561,1.238,5.97,1111122 
DISL,ioos:station:DISL:PPTA:1,2017-04-03T09:30:00Z,30.2791,-87.5561,1.23,6.51,1111122 
DISL,ioos:station:DISL:PPTA:1,2017-04-03T10:00:00Z,30.2791,-87.5561,1.248,5.65,1111122 
DISL,ioos:station:DISL:PPTA:1,2017-04-03T10:30:00Z,30.2791,-87.5561,1.261,5.72,1111122 
DISL,ioos:station:DISL:PPTA:1,2017-04-03T11:00:00Z,30.2791,-87.5561,1.266,5.64,1111122 
DISL,ioos:station:DISL:PPTA:1,2017-04-03T11:30:00Z,30.2791,-87.5561,1.313,5.71,1111122 
DISL,ioos:station:DISL:PPTA:1,2017-04-03T12:00:00Z,30.2791,-87.5561,1.3,5.44,1111122 
DISL,ioos:station:DISL:PPTA:1,2017-04-03T12:30:00Z,30.2791,-87.5561,1.282,5.97,1111122 
DISL,ioos:station:DISL:PPTA:1,2017-04-03T13:00:00Z,30.2791,-87.5561,1.316,6.08,1111122 
DISL,ioos:station:DISL:PPTA:1,2017-04-03T13:30:00Z,30.2791,-87.5561,1.315,6.46,1111122 
DISL,ioos:station:DISL:PPTA:1,2017-04-03T14:00:00Z,30.2791,-87.5561,1.328,6.38,1111122 
DISL,ioos:station:DISL:PPTA:1,2017-04-03T14:30:00Z,30.2791,-87.5561,1.357,6.28,1111122 
DISL,ioos:station:DISL:PPTA:1,2017-04-03T15:00:00Z,30.2791,-87.5561,1.389,6.43,1111122 
DISL,ioos:station:DISL:PPTA:1,2017-04-03T15:30:00Z,30.2791,-87.5561,1.486,6.34,1111122 
DISL,ioos:station:DISL:PPTA:1,2017-04-03T16:00:00Z,30.2791,-87.5561,1.58,6.84,1111122 
DISL,ioos:station:DISL:PPTA:1,2017-04-03T16:30:00Z,30.2791,-87.5561,1.379,6.5,1111122 
DISL,ioos:station:DISL:PPTA:1,2017-04-03T17:00:00Z,30.2791,-87.5561,1.361,6.98,1111122 
DISL,ioos:station:DISL:PPTA:1,2017-04-03T17:30:00Z,30.2791,-87.5561,1.416,6.71,1111122 
DISL,ioos:station:DISL:PPTA:1,2017-04-03T18:00:00Z,30.2791,-87.5561,1.575,6.69,1111122 
DISL,ioos:station:DISL:PPTA:1,2017-04-03T18:30:00Z,30.2791,-87.5561,1.528,6.66,1111122 
DISL,ioos:station:DISL:PPTA:1,2017-04-03T19:00:00Z,30.2791,-87.5561,1.481,6.82,1111122 
DISL,ioos:station:DISL:PPTA:1,2017-04-03T19:30:00Z,30.2791,-87.5561,1.508,6.71,1111122 
DISL,ioos:station:DISL:PPTA:1,2017-04-03T20:00:00Z,30.2791,-87.5561,1.46,6.82,1111122 
DISL,ioos:station:DISL:PPTA:1,2017-04-03T20:30:00Z,30.2791,-87.5561,1.464,6.72,1111122 
DISL,ioos:station:DISL:PPTA:1,2017-04-03T21:00:00Z,30.2791,-87.5561,1.51,6.79,1111122 
DISL,ioos:station:DISL:PPTA:1,2017-04-03T21:30:00Z,30.2791,-87.5561,1.497,6.7,1111122 
DISL,ioos:station:DISL:PPTA:1,2017-04-03T22:00:00Z,30.2791,-87.5561,1.538,6.89,1111122 
DISL,ioos:station:DISL:PPTA:1,2017-04-03T22:30:00Z,30.2791,-87.5561,1.521,6.8,1111122 
DISL,ioos:station:DISL:PPTA:1,2017-04-03T23:00:00Z,30.2791,-87.5561,1.534,6.93,1111122 
DISL,ioos:station:DISL:PPTA:1,2017-04-03T23:30:00Z,30.2791,-87.5561,1.495,6.85,1111122 
DISL,ioos:station:DISL:PPTA:1,2017-04-04T00:00:00Z,30.2791,-87.5561,1.463,6.34,1111122 
DISL,ioos:station:DISL:PPTA:1,2017-04-04T00:30:00Z,30.2791,-87.5561,1.435,6.97,1111122 
DISL,ioos:station:DISL:PPTA:1,2017-04-04T01:00:00Z,30.2791,-87.5561,1.397,6.83,1111122 
DISL,ioos:station:DISL:PPTA:1,2017-04-04T01:30:00Z,30.2791,-87.5561,1.461,6.98,1111122 
DISL,ioos:station:DISL:PPTA:1,2017-04-04T02:00:00Z,30.2791,-87.5561,1.453,6.97,1111122 
DISL,ioos:station:DISL:PPTA:1,2017-04-04T02:30:00Z,30.2791,-87.5561,1.365,6.74,1111122 
DISL,ioos:station:DISL:PPTA:1,2017-04-04T03:00:00Z,30.2791,-87.5561,1.401,6.57,1111122 
DISL,ioos:station:DISL:PPTA:1,2017-04-04T03:30:00Z,30.2791,-87.5561,1.347,6.79,1111122 
DISL,ioos:station:DISL:PPTA:1,2017-04-04T04:00:00Z,30.2791,-87.5561,1.375,6.81,1111122 
DISL,ioos:station:DISL:PPTA:1,2017-04-04T04:30:00Z,30.2791,-87.5561,1.369,6.94,1111122 
DISL,ioos:station:DISL:PPTA:1,2017-04-04T05:00:00Z,30.2791,-87.5561,1.35,6.9,1111122 
DISL,ioos:station:DISL:PPTA:1,2017-04-04T05:30:00Z,30.2791,-87.5561,1.318,6.73,1111122 
DISL,ioos:station:DISL:PPTA:1,2017-04-04T06:00:00Z,30.2791,-87.5561,1.328,6.39,1111122 
DISL,ioos:station:DISL:PPTA:1,2017-04-04T06:30:00Z,30.2791,-87.5561,1.306,6.6,1111122 
DISL,ioos:station:DISL:PPTA:1,2017-04-04T07:00:00Z,30.2791,-87.5561,1.304,6.65,1111122 
DISL,ioos:station:DISL:PPTA:1,2017-04-04T07:30:00Z,30.2791,-87.5561,1.27,6.68,1111122 
DISL,ioos:station:DISL:PPTA:1,2017-04-04T08:00:00Z,30.2791,-87.5561,1.289,6.65,1111122 
DISL,ioos:station:DISL:PPTA:1,2017-04-04T08:30:00Z,30.2791,-87.5561,1.282,6.25,1111122 
DISL,ioos:station:DISL:PPTA:1,2017-04-04T09:00:00Z,30.2791,-87.5561,1.259,6.44,1111122 
DISL,ioos:station:DISL:PPTA:1,2017-04-04T09:30:00Z,30.2791,-87.5561,1.266,6.45,1111122 
DISL,ioos:station:DISL:PPTA:1,2017-04-04T10:00:00Z,30.2791,-87.5561,1.262,6.25,1111122 
DISL,ioos:station:DISL:PPTA:1,2017-04-04T10:30:00Z,30.2791,-87.5561,1.266,6.42,1111122 
DISL,ioos:station:DISL:PPTA:1,2017-04-04T11:00:00Z,30.2791,-87.5561,1.282,6.41,1111122 
DISL,ioos:station:DISL:PPTA:1,2017-04-04T11:30:00Z,30.2791,-87.5561,1.29,6.25,1111122 
DISL,ioos:station:DISL:PPTA:1,2017-04-04T12:00:00Z,30.2791,-87.5561,1.291,6.0,1111122 
DISL,ioos:station:DISL:PPTA:1,2017-04-04T12:30:00Z,30.2791,-87.5561,1.325,5.79,1111122 
DISL,ioos:station:DISL:PPTA:1,2017-04-04T13:00:00Z,30.2791,-87.5561,1.319,5.96,1111122 
DISL,ioos:station:DISL:PPTA:1,2017-04-04T13:30:00Z,30.2791,-87.5561,1.294,5.85,1111122 
DISL,ioos:station:DISL:PPTA:1,2017-04-04T14:00:00Z,30.2791,-87.5561,1.323,5.53,1111122 
DISL,ioos:station:DISL:PPTA:1,2017-04-04T14:30:00Z,30.2791,-87.5561,1.339,6.34,1111122 
DISL,ioos:station:DISL:PPTA:1,2017-04-04T15:00:00Z,30.2791,-87.5561,1.336,6.61,1111122 
DISL,ioos:station:DISL:PPTA:1,2017-04-04T15:30:00Z,30.2791,-87.5561,1.364,6.63,1111122 
DISL,ioos:station:DISL:PPTA:1,2017-04-04T16:00:00Z,30.2791,-87.5561,1.367,6.44,1111122 
DISL,ioos:station:DISL:PPTA:1,2017-04-04T16:30:00Z,30.2791,-87.5561,1.371,6.44,1111122 
DISL,ioos:station:DISL:PPTA:1,2017-04-04T17:00:00Z,30.2791,-87.5561,1.396,6.62,1111122 
DISL,ioos:station:DISL:PPTA:1,2017-04-04T17:30:00Z,30.2791,-87.5561,1.414,6.42,1111122 
DISL,ioos:station:DISL:PPTA:1,2017-04-04T18:00:00Z,30.2791,-87.5561,1.418,6.59,1111122 
DISL,ioos:station:DISL:PPTA:1,2017-04-04T18:30:00Z,30.2791,-87.5561,1.446,6.83,1111122 
DISL,ioos:station:DISL:PPTA:1,2017-04-04T19:00:00Z,30.2791,-87.5561,1.444,7.05,1111122 
DISL,ioos:station:DISL:PPTA:1,2017-04-04T19:30:00Z,30.2791,-87.5561,1.458,6.93,1111122 
DISL,ioos:station:DISL:PPTA:1,2017-04-04T20:00:00Z,30.2791,-87.5561,1.465,6.95,1111122 
DISL,ioos:station:DISL:PPTA:1,2017-04-04T20:30:00Z,30.2791,-87.5561,1.468,7.0,1111122 
DISL,ioos:station:DISL:PPTA:1,2017-04-04T21:00:00Z,30.2791,-87.5561,1.462,6.96,1111122 
DISL,ioos:station:DISL:PPTA:1,2017-04-04T21:30:00Z,30.2791,-87.5561,1.489,7.11,1111122 
DISL,ioos:station:DISL:PPTA:1,2017-04-04T22:00:00Z,30.2791,-87.5561,1.494,7.18,1111122 
DISL,ioos:station:DISL:PPTA:1,2017-04-04T22:30:00Z,30.2791,-87.5561,1.497,7.01,1111122 
DISL,ioos:station:DISL:PPTA:1,2017-04-04T23:00:00Z,30.2791,-87.5561,1.498,7.11,1111122 
DISL,ioos:station:DISL:PPTA:1,2017-04-04T23:30:00Z,30.2791,-87.5561,1.483,6.85,1111122 
DISL,ioos:station:DISL:PPTA:1,2017-04-05T00:00:00Z,30.2791,-87.5561,1.469,6.81,1111122 
DISL,ioos:station:DISL:PPTA:1,2017-04-05T00:30:00Z,30.2791,-87.5561,1.47,7.17,1111122 
DISL,ioos:station:DISL:PPTA:1,2017-04-05T01:00:00Z,30.2791,-87.5561,1.463,6.92,1111122 
DISL,ioos:station:DISL:PPTA:1,2017-04-05T01:30:00Z,30.2791,-87.5561,1.472,7.52,1111122 
DISL,ioos:station:DISL:PPTA:1,2017-04-05T02:00:00Z,30.2791,-87.5561,1.44,7.63,1111122 
DISL,ioos:station:DISL:PPTA:1,2017-04-05T02:30:00Z,30.2791,-87.5561,1.418,6.66,1111122 
DISL,ioos:station:DISL:PPTA:1,2017-04-05T03:00:00Z,30.2791,-87.5561,1.409,6.92,1111122 
DISL,ioos:station:DISL:PPTA:1,2017-04-05T03:30:00Z,30.2791,-87.5561,1.402,7.23,1111122 
DISL,ioos:station:DISL:PPTA:1,2017-04-05T04:00:00Z,30.2791,-87.5561,1.376,7.25,1111122 
DISL,ioos:station:DISL:PPTA:1,2017-04-05T04:30:00Z,30.2791,-87.5561,1.368,6.96,1111122 
DISL,ioos:station:DISL:PPTA:1,2017-04-05T05:00:00Z,30.2791,-87.5561,1.341,6.69,1111122 
DISL,ioos:station:DISL:PPTA:1,2017-04-05T05:30:00Z,30.2791,-87.5561,1.336,6.8,1111122 
DISL,ioos:station:DISL:PPTA:1,2017-04-05T06:00:00Z,30.2791,-87.5561,1.328,6.65,1111122 
DISL,ioos:station:DISL:PPTA:1,2017-04-05T06:30:00Z,30.2791,-87.5561,1.304,6.72,1111122 
DISL,ioos:station:DISL:PPTA:1,2017-04-05T07:00:00Z,30.2791,-87.5561,1.304,6.64,1111122 
DISL,ioos:station:DISL:PPTA:1,2017-04-05T07:30:00Z,30.2791,-87.5561,1.294,6.93,1111122 
DISL,ioos:station:DISL:PPTA:1,2017-04-05T08:00:00Z,30.2791,-87.5561,1.283,6.35,1111122 
DISL,ioos:station:DISL:PPTA:1,2017-04-05T08:30:00Z,30.2791,-87.5561,1.276,6.62,1111122 
DISL,ioos:station:DISL:PPTA:1,2017-04-05T09:00:00Z,30.2791,-87.5561,1.276,6.92,1111122 
DISL,ioos:station:DISL:PPTA:1,2017-04-05T09:30:00Z,30.2791,-87.5561,1.257,6.45,1111122 
DISL,ioos:station:DISL:PPTA:1,2017-04-05T10:00:00Z,30.2791,-87.5561,1.28,6.94,1111122 
DISL,ioos:station:DISL:PPTA:1,2017-04-05T10:30:00Z,30.2791,-87.5561,1.275,6.07,1111122 
DISL,ioos:station:DISL:PPTA:1,2017-04-05T11:00:00Z,30.2791,-87.5561,1.295,6.37,1111122 
DISL,ioos:station:DISL:PPTA:1,2017-04-05T11:30:00Z,30.2791,-87.5561,1.296,6.2,1111122 
DISL,ioos:station:DISL:PPTA:1,2017-04-05T12:00:00Z,30.2791,-87.5561,1.299,5.66,1111122 
DISL,ioos:station:DISL:PPTA:1,2017-04-05T12:30:00Z,30.2791,-87.5561,1.335,6.38,1111122 
DISL,ioos:station:DISL:PPTA:1,2017-04-05T13:00:00Z,30.2791,-87.5561,1.324,6.01,1111122 
DISL,ioos:station:DISL:PPTA:1,2017-04-05T13:30:00Z,30.2791,-87.5561,1.343,5.39,1111122 
DISL,ioos:station:DISL:PPTA:1,2017-04-05T14:00:00Z,30.2791,-87.5561,1.351,5.8,1111122 
DISL,ioos:station:DISL:PPTA:1,2017-04-05T14:30:00Z,30.2791,-87.5561,1.352,6.12,1111122 
DISL,ioos:station:DISL:PPTA:1,2017-04-05T15:00:00Z,30.2791,-87.5561,1.334,6.39,1111122 
DISL,ioos:station:DISL:PPTA:1,2017-04-05T15:30:00Z,30.2791,-87.5561,1.354,6.29,1111122 
DISL,ioos:station:DISL:PPTA:1,2017-04-05T16:00:00Z,30.2791,-87.5561,1.367,6.08,1111122 
DISL,ioos:station:DISL:PPTA:1,2017-04-05T16:30:00Z,30.2791,-87.5561,1.37,6.45,1111122 
DISL,ioos:station:DISL:PPTA:1,2017-04-05T17:00:00Z,30.2791,-87.5561,1.389,6.49,1111122 
DISL,ioos:station:DISL:PPTA:1,2017-04-05T17:30:00Z,30.2791,-87.5561,1.394,6.57,1111122 
DISL,ioos:station:DISL:PPTA:1,2017-04-05T18:00:00Z,30.2791,-87.5561,1.432,6.66,1111122 
DISL,ioos:station:DISL:PPTA:1,2017-04-05T18:30:00Z,30.2791,-87.5561,1.419,6.39,1111122 
DISL,ioos:station:DISL:PPTA:1,2017-04-05T19:00:00Z,30.2791,-87.5561,1.463,6.93,1111122 
DISL,ioos:station:DISL:PPTA:1,2017-04-05T19:30:00Z,30.2791,-87.5561,1.486,6.92,1111122 
DISL,ioos:station:DISL:PPTA:1,2017-04-05T20:00:00Z,30.2791,-87.5561,1.493,6.84,1111122 
DISL,ioos:station:DISL:PPTA:1,2017-04-05T20:30:00Z,30.2791,-87.5561,1.473,6.94,1111122 
DISL,ioos:station:DISL:PPTA:1,2017-04-05T21:00:00Z,30.2791,-87.5561,1.496,6.77,1111122 
DISL,ioos:station:DISL:PPTA:1,2017-04-05T21:30:00Z,30.2791,-87.5561,1.494,6.71,1111122 
DISL,ioos:station:DISL:PPTA:1,2017-04-05T22:00:00Z,30.2791,-87.5561,1.477,6.77,1111122 
DISL,ioos:station:DISL:PPTA:1,2017-04-05T22:30:00Z,30.2791,-87.5561,1.48,6.74,1111122 
DISL,ioos:station:DISL:PPTA:1,2017-04-05T23:00:00Z,30.2791,-87.5561,1.501,6.38,1111122 
DISL,ioos:station:DISL:PPTA:1,2017-04-05T23:30:00Z,30.2791,-87.5561,1.477,6.54,1111122 
DISL,ioos:station:DISL:PPTA:1,2017-04-06T00:00:00Z,30.2791,-87.5561,1.505,6.69,1111122 
DISL,ioos:station:DISL:PPTA:1,2017-04-06T00:30:00Z,30.2791,-87.5561,1.509,6.38,1111122 
DISL,ioos:station:DISL:PPTA:1,2017-04-06T01:00:00Z,30.2791,-87.5561,1.494,6.41,1111122 
DISL,ioos:station:DISL:PPTA:1,2017-04-06T01:30:00Z,30.2791,-87.5561,1.461,6.34,1111122 
DISL,ioos:station:DISL:PPTA:1,2017-04-06T02:00:00Z,30.2791,-87.5561,1.453,6.55,1111122 
DISL,ioos:station:DISL:PPTA:1,2017-04-06T02:30:00Z,30.2791,-87.5561,1.42,6.47,1111122 
DISL,ioos:station:DISL:PPTA:1,2017-04-06T03:00:00Z,30.2791,-87.5561,1.427,6.61,1111122 
DISL,ioos:station:DISL:PPTA:1,2017-04-06T03:30:00Z,30.2791,-87.5561,1.388,6.79,1111122 
DISL,ioos:station:DISL:PPTA:1,2017-04-06T04:00:00Z,30.2791,-87.5561,1.341,6.51,1111122 
DISL,ioos:station:DISL:PPTA:1,2017-04-06T04:30:00Z,30.2791,-87.5561,1.278,6.78,1111122 
DISL,ioos:station:DISL:PPTA:1,2017-04-06T05:00:00Z,30.2791,-87.5561,1.282,6.32,1111122 
DISL,ioos:station:DISL:PPTA:1,2017-04-06T05:30:00Z,30.2791,-87.5561,1.272,6.61,1111122 
DISL,ioos:station:DISL:PPTA:1,2017-04-06T06:00:00Z,30.2791,-87.5561,1.265,6.75,1111122 
DISL,ioos:station:DISL:PPTA:1,2017-04-06T06:30:00Z,30.2791,-87.5561,1.233,6.67,1111122 
DISL,ioos:station:DISL:PPTA:1,2017-04-06T07:00:00Z,30.2791,-87.5561,1.22,6.91,1111122 
DISL,ioos:station:DISL:PPTA:1,2017-04-06T07:30:00Z,30.2791,-87.5561,1.215,6.86,1111122 
DISL,ioos:station:DISL:PPTA:1,2017-04-06T08:00:00Z,30.2791,-87.5561,1.195,6.84,1111122 
DISL,ioos:station:DISL:PPTA:1,2017-04-06T08:30:00Z,30.2791,-87.5561,1.201,6.77,1111122 
DISL,ioos:station:DISL:PPTA:1,2017-04-06T09:00:00Z,30.2791,-87.5561,1.196,6.82,1111122 
DISL,ioos:station:DISL:PPTA:1,2017-04-06T09:30:00Z,30.2791,-87.5561,1.166,6.82,1111122 
DISL,ioos:station:DISL:PPTA:1,2017-04-06T10:00:00Z,30.2791,-87.5561,1.139,6.81,1111122 
DISL,ioos:station:DISL:PPTA:1,2017-04-06T10:30:00Z,30.2791,-87.5561,1.13,6.78,1111122 
DISL,ioos:station:DISL:PPTA:1,2017-04-06T11:00:00Z,30.2791,-87.5561,1.115,6.8,1111122 
DISL,ioos:station:DISL:PPTA:1,2017-04-06T11:30:00Z,30.2791,-87.5561,1.134,6.71,1111122 
DISL,ioos:station:DISL:PPTA:1,2017-04-06T12:00:00Z,30.2791,-87.5561,1.134,6.81,1111122 
DISL,ioos:station:DISL:PPTA:1,2017-04-06T12:30:00Z,30.2791,-87.5561,1.152,6.45,1111122 
DISL,ioos:station:DISL:PPTA:1,2017-04-06T13:00:00Z,30.2791,-87.5561,1.17,6.58,1111122 
DISL,ioos:station:DISL:PPTA:1,2017-04-06T13:30:00Z,30.2791,-87.5561,1.156,6.71,1111122 
DISL,ioos:station:DISL:PPTA:1,2017-04-06T14:00:00Z,30.2791,-87.5561,1.143,6.6,1111122 
DISL,ioos:station:DISL:PPTA:1,2017-04-06T14:30:00Z,30.2791,-87.5561,1.146,6.49,1111122 
DISL,ioos:station:DISL:PPTA:1,2017-04-06T15:00:00Z,30.2791,-87.5561,1.134,6.26,1111122 
DISL,ioos:station:DISL:PPTA:1,2017-04-06T15:30:00Z,30.2791,-87.5561,1.136,6.68,1111122 